Showing default

INTELSAT 29E, 41308

Orbit data source: Space-Track

INTELSAT 29E, 41308 is a payload satellite owned by Intelsat SA (US) (US) in GEO that was launched on Wed, 27 Jan 2016 UTC via an ARIANE 5ECA launch vehicle from the French Guiana (FRGUI). Payloads include a variety of satellites, spacecraft, and rockets equipped with specific instruments for various scientific and technological missions. These include communications satellites like Starlink; space stations such as the ISS; scientific satellites like the Hubble; Earth observation satellites from companies like Planet Labs, Umbra, and HawkEye 360; GPS; miniature CubeSats for education and research; and military/defense satellites.

Not visible in the next 10 days
INTELSAT 29E details
Identifier
41308, 2016-004A
Orbit
GEO
Last TLE update14 hours ago
Origin
Flag of USIntelsat SA (US) (US / ITSO)
ManufacturerBoeing/ES
MissionNon-operational Commercial Communications
Bus & MotorBSS-702MP, LEROS
Mass6,552 kg wet, ~2,946 kg dry
Launch date (UTC)
2016-01-27 (9 years ago)
Launch vehicle
ARIANE 5ECA
Launch site
French Guiana (FRGUI)
Object type
Payload
Rocket body
Debris
Shape & HBRBox + 2 Pan, 44 m
Radar Cross Section59.953 m², Large (>1 m²)

Expand to show TLE details & history

TLE from 14 hours ago
0 INTELSAT 29E
1 41308U 16004A   25013.76993880 -.00000089  00000-0  00000-0 0  9996
2 41308   5.1916  76.5958 0001199  31.3650 348.8969  1.00633136 33059
Epoch: 2025-01-13T18:28Z
Definitive object data (Epoch: 2025-01-13T18:28:42.712Z)
Latitude1.8159°
Longitude66.1397°
Altitude35,679.905 km
Speed3.079 km/s
True Right ascension06h 27m 12s
True Declination1° 48' 51"
Sunlit
Object was in daylight at TLE epoch
Visualization TLE readout
Latitude-4.23954°
Longitude-79.95147°
Altitude35,690.408 km
Speed3.078 km/s
Apparent Right ascension20h 46m 11s
Apparent Declination-8° 43' 04"
Sunlit
Object is in daylight
Visualization observer readout
Local Sidereal Time09:14:53
Azimuth13.527° NNE
Elevation-58.151°
Doppler factor1
Orbital elements
Apogee altitude35,691.702 km
Perigee altitude35,681.615 km
Semi-major axis42,064.795 km
Eccentricity0.0001199
Inclination5.1916°
RAAN76.5958°
Arg. of periapsis31.365°
True anomaly348.89425°
Mean anomaly348.8969°
Eccentric anomaly348.89558°
Mean motion0.25157 °/min
BSTARUnknown
Orbital period1430.99 mins
Loading historical data...
41308 neighbors
Authenticating...
Loading maneuver chart data...
Loading historical data...
Loading historical data...
Loading historical data...
Loading historical data...
Loading historical data...
Loading historical data...
Loading historical data...
Other satellites on launch #4 in the year 2016 (2016-01-27 UTC)

INTELSAT 29E Visibility forecast

Observer location: undefined°, undefined

INTELSAT 29E is not visible in the next 10 days
Span
Click to sort rows by Start time (UTC) header in descending order
Start Az.
Max El. time (UTC)
Max El. Az.
Max El.
End time (UTC)
End Az.
|